sat.trackr.live / text

‹ back to catalog

PROX-1

NORAD 44339 · 2019-036A

PAYLOAD ACTIVE UNKNOWN

§ Identity

Operator
Country
US
Launch date
2019-06-25
Launch site
AFETR
Launch vehicle
Mass (kg)
RCS (m²)

External: N2YO · Heavens-Above · Gunter

§ Orbital elements

Epoch: 2026-05-25T00:35:32.845344Z

Period
96.65 min
Inclination
23.9950°
Eccentricity
0.0006581
Mean motion
14.89981024 rev/d
Perigee alt
593.4 km
Apogee alt
602.6 km
Semi-major
6,976.1 km
B*
1.2228e-3
RAAN
268.9077°
Arg perigee
119.7701°
Mean anomaly
240.3454°
Rev number
37,001

§ Raw data

PROX-11 44339U 19036A   26145.02468571  .00012369  00000+0  12228-2 0  99902 44339  23.9950 268.9077 0006581 119.7701 240.3454 14.89981024370017

JSON: /api/v1/satellites/44339 · /tle

For live sub-satellite position, see the globe view (requires WebGL).

§ Visibility from observer

Set your observer location to see the next 7 days of passes ≥ 10°. The values pass through the URL so the page stays shareable.

No JS? Fill the form by hand. The geolocation button needs JavaScript.

§ Radio — SatNOGS DB

ModeDescriptionDownlinkUplink
FSK MODE S FSK38k4 2.307 GHz

1 transmitter · refreshed weekly from db.satnogs.org